Regional Weather Roundup
Issued by NWS Cleveland, OH

Home | Current Version | Previous Version | Text Only | Print | Product List | Glossary Off
Versions: 1 2 3 4 5 6 7 8 9 10 11 12 13 14 15 16 17 18 19 20 21 22 23 24 25 26 27 28 29 30 31 32 33 34 35 36 37 38 39 40 41 42 43 44 45 46 47 48 49 50

648
ASUS41 KCLE 281210
RWRCLE
OHIO REGIONAL WEATHER ROUNDUP
NATIONAL WEATHER SERVICE CLEVELAND, OH
800 AM EDT SUN MAY 28 2017

NOTE: "FAIR" INDICATES FEW OR NO CLOUDS BELOW 12,000 FEET WITH NO
SIGNIFICANT WEATHER AND/OR OBSTRUCTIONS TO VISIBILITY.

OHZ001>008-015>018-024>027-034-035-043-044-281300-
   NORTHWEST OHIO

CITY           SKY/WX    TMP DP  RH WIND       PRES   REMARKS
DEFIANCE       MOSUNNY   60  54  80 E7        29.76S
FINDLAY        CLOUDY    65  57  75 E7        29.75F
TOLEDO EXPRESS PTSUNNY   62  57  83 E5        29.76F
TOLEDO EXEC    PTSUNNY   64  57  78 E7        29.78F
LIMA           CLOUDY    63  62  97 SE10      29.75F FOG
$$

OHZ009>014-019>023-028>033-038-089-281300-
   NORTHEAST OHIO

CITY           SKY/WX    TMP DP  RH WIND       PRES   REMARKS
CLE-HOPKINS    PTSUNNY   66  56  70 CALM      29.82R
CLE-LAKEFRONT  MOSUNNY   65  55  70 S3        29.80R
CUY CO. ARPT   MOSUNNY   66  57  72 S7        29.80F
LORAIN-ELYRIA  PTSUNNY   61  51  70 CALM      29.81R
ASHTABULA      CLOUDY    57  55  93 CALM      29.82F
AKRON-CANTON   PTSUNNY   64  58  80 SE8       29.81R
WOOSTER        SUNNY     61  57  87 SE5       29.80S
MANSFIELD      SUNNY     61  58  90 CALM      29.80S
YOUNGSTOWN     MOSUNNY   60  56  86 SE6       29.82S
$$

OHZ042-051>053-060>062-070>072-077>081-281300-
  SOUTHWEST OHIO

CITY           SKY/WX    TMP DP  RH WIND       PRES   REMARKS
CINC-COVINGTON CLOUDY    64  62  93 S8        29.78S
CINC-LUNKEN    MOSUNNY   65  63  93 SW7       29.79S
HAMILTON       CLOUDY    68  64  87 VRB6      29.78S
DAYTON         CLOUDY    65  62  90 S12       29.77S
WRIGHT-PAT AFB CLOUDY    66  66  99 S9        29.76F
DAYTON GENERAL MOSUNNY   65  62  90 S12       29.77S
WILMINGTON     CLOUDY    65  63  93 S7        29.78F
$$

OHZ036-037-039>041-045>050-054>059-063>069-073>076-082>088-281300-
  CENTRAL AND SOUTHEAST OHIO

CITY           SKY/WX    TMP DP  RH WIND       PRES   REMARKS
COLUMBUS       CLOUDY    68  64  87 S7        29.78R
OSU AIRPORT    CLOUDY    67  65  93 S7        29.78S
BOLTON FIELD   CLOUDY    66  63  88 S10G16    29.79S
RICKENBACK AFB CLOUDY    66  64  94 S8        29.78F
NEWARK         CLOUDY    68  65  90 SW5       29.78R
MARION         CLOUDY    65  62  90 S9        29.78S FOG
LANCASTER      CLOUDY    70  64  81 S7        29.79F
ZANESVILLE     FOG       66  64  93 CALM      29.80R VSB 1/2
NEW PHILLY     NOT AVBL
$$




USA.gov is the U.S. government's official web portal to all federal, state and local government web resources and services.